User: anonymous   Login
Location: Freemans Gardens
(41.6414°N, 83.6077°W)
Time: 21:11:44
(UTC+00:00)
Language:

H-2A R/B - Orbit

View from above orbital plane
View from above orbital plane
View from above satellite
View from above satellite

Ground track
Ground track

The orbit data is extracted from the following two-line orbital elements,

1 38341U 12025E   21016.50222737  .00000163  00000-0  26779-4 0  9992
2 38341  98.5178 191.6397 0054290 267.5146  91.9850 14.84149059468966
Epoch (UTC): 16 January 2021 12:03:12
Eccentricity: 0.0054290
inclination: 98.5178°
perigee height: 578 km
apogee height: 654 km
right ascension of ascending node: 191.6397°
argument of perigee: 267.5146°
revolutions per day: 14.84149059
mean anomaly at epoch: 91.9850°
orbit number at epoch: 46896

The dashed part of the orbit path shows where the satellite is in the earth's shadow,  

DLR